Location: Roland
(31.1349°N, 85.4372°W)
Time: 23:01:02
(UTC+00:00)

S-56A Canister/Altair - Pass Details

Date: 23 April 2021
Orbit: 632 x 2501 km, 38.9° (Epoch: 11 May)

Event Time Altitude Azimuth Distance (km) Brightness Sun altitude
Rises 02:02:06 0° 223° (SW) 5,805 12.2 -21.9°
Reaches altitude 10° 02:06:23 10° 219° (SW) 4,579 11.5 -22.7°
Maximum altitude 02:17:52 53° 148° (SSE) 1,887 9.0 -24.7°
Enters shadow 02:20:32 41° 103° (ESE) 1,978 9.1 -25.2°
